| time (UTC) | temp F | wind direction | speed knots | gust knots | rain 1hr in | rain 24hr in | rain mn in | humidity % | barometer mb |
| 20260507031038 | 49 | 212 | 2.6 | 6.1 | 0.00 | 0.00 | 0.00 | 73 | 1008.0 |
| 20260507030539 | 49 | 218 | 3.5 | 6.1 | 0.00 | 0.00 | 0.00 | 73 | 1008.1 |
| 20260507030051 | 49 | 220 | 2.6 | 7.0 | 0.00 | 0.00 | 0.00 | 73 | 1008.2 |
| 20260507025538 | 49 | 219 | 2.6 | 7.0 | 0.00 | 0.00 | 0.00 | 73 | 1008.2 |
| 20260507025040 | 49 | 202 | 3.5 | 7.8 | 0.00 | 0.00 | 0.00 | 73 | 1008.2 |
| 20260507024553 | 49 | 207 | 3.5 | 7.8 | 0.00 | 0.00 | 0.00 | 73 | 1008.1 |
| 20260507024037 | 49 | 186 | 3.5 | 7.0 | 0.00 | 0.00 | 0.00 | 73 | 1008.1 |
| 20260507023537 | 49 | 211 | 2.6 | 5.2 | 0.00 | 0.00 | 0.00 | 73 | 1008.0 |
| 20260507023102 | 49 | 194 | 1.7 | 5.2 | 0.00 | 0.00 | 0.00 | 73 | 1008.1 |
| 20260507022538 | 50 | 202 | 3.5 | 6.1 | 0.00 | 0.00 | 0.00 | 72 | 1008.0 |
| 20260507022038 | 50 | 202 | 2.6 | 6.1 | 0.00 | 0.00 | 0.00 | 72 | 1008.0 |
| 20260507021549 | 50 | 219 | 3.5 | 6.1 | 0.00 | 0.00 | 0.00 | 71 | 1008.0 |
| 20260507021037 | 50 | 240 | 2.6 | 6.1 | 0.00 | 0.00 | 0.00 | 70 | 1008.0 |
| 20260507020538 | 50 | 240 | 2.6 | 6.1 | 0.00 | 0.00 | 0.00 | 70 | 1008.1 |
| 20260507020056 | 50 | 202 | 2.6 | 7.0 | 0.00 | 0.00 | 0.00 | 69 | 1008.0 |
| 20260507015538 | 50 | 207 | 3.5 | 7.8 | 0.00 | 0.00 | 0.00 | 69 | 1008.1 |
| 20260507015038 | 50 | 230 | 3.5 | 8.7 | 0.00 | 0.00 | 0.00 | 69 | 1008.0 |
| 20260507014549 | 50 | 224 | 5.2 | 8.7 | 0.00 | 0.00 | 0.00 | 69 | 1008.0 |
| 20260507014038 | 50 | 213 | 4.3 | 11.3 | 0.00 | 0.00 | 0.00 | 69 | 1008.0 |
| 20260507013538 | 50 | 219 | 5.2 | 11.3 | 0.00 | 0.00 | 0.00 | 68 | 1008.1 |
| 20260507013049 | 50 | 212 | 7.0 | 11.3 | 0.00 | 0.00 | 0.00 | 68 | 1007.9 |
| 20260507012542 | 50 | 219 | 7.8 | 12.2 | 0.00 | 0.00 | 0.00 | 68 | 1007.9 |
| 20260507012038 | 50 | 197 | 7.8 | 12.2 | 0.00 | 0.00 | 0.00 | 67 | 1007.9 |
| 20260507011550 | 50 | 212 | 7.8 | 12.2 | 0.00 | 0.00 | 0.00 | 68 | 1007.8 |
| 20260507011038 | 50 | 207 | 7.8 | 13.9 | 0.00 | 0.00 | 0.00 | 67 | 1008.0 |
| 20260507010538 | 50 | 182 | 7.0 | 13.9 | 0.00 | 0.00 | 0.00 | 67 | 1008.0 |
| 20260507010050 | 50 | 180 | 7.0 | 12.2 | 0.00 | 0.00 | 0.00 | 67 | 1008.0 |
| 20260507005537 | 50 | 207 | 6.1 | 12.2 | 0.00 | 0.00 | 0.00 | 68 | 1008.0 |
| 20260507005037 | 50 | 217 | 7.0 | 13.0 | 0.00 | 0.00 | 0.00 | 68 | 1007.9 |
| 20260507004550 | 50 | 197 | 7.0 | 13.9 | 0.00 | 0.00 | 0.00 | 68 | 1007.7 |
| 20260507004038 | 51 | 197 | 8.7 | 13.9 | 0.00 | 0.00 | 0.00 | 67 | 1007.7 |
| 20260507003538 | 51 | 213 | 9.6 | 14.8 | 0.00 | 0.00 | 0.00 | 65 | 1007.7 |
| 20260507003056 | 51 | 207 | 9.6 | 14.8 | 0.00 | 0.00 | 0.00 | 65 | 1007.7 |
| 20260507002540 | 51 | 207 | 8.7 | 14.8 | 0.00 | 0.00 | 0.00 | 65 | 1007.6 |
| 20260507002038 | 51 | 202 | 10.4 | 14.8 | 0.00 | 0.00 | 0.00 | 65 | 1007.6 |
| 20260507001610 | 51 | 215 | 8.7 | 13.0 | 0.00 | 0.00 | 0.00 | 65 | 1007.6 |
| 20260507001038 | 51 | 219 | 7.8 | 16.5 | 0.00 | 0.00 | 0.00 | 65 | 1007.5 |
| 20260507000543 | 51 | 213 | 10.4 | 16.5 | 0.00 | 0.00 | 0.00 | 65 | 1007.4 |
| 20260507000051 | 51 | 192 | 10.4 | 16.5 | 0.00 | 0.00 | 0.00 | 65 | 1007.5 |
| 20260506235540 | 51 | 197 | 11.3 | 16.5 | 0.00 | 0.00 | 0.00 | 64 | 1007.3 |
| 20260506235038 | 51 | 194 | 8.7 | 13.9 | 0.00 | 0.00 | 0.00 | 64 | 1007.3 |
| 20260506234554 | 51 | 202 | 8.7 | 16.5 | 0.00 | 0.00 | 0.00 | 64 | 1007.3 |
| 20260506234039 | 51 | 207 | 10.4 | 16.5 | 0.00 | 0.00 | 0.00 | 63 | 1007.1 |
| 20260506233539 | 51 | 197 | 9.6 | 17.4 | 0.00 | 0.00 | 0.00 | 63 | 1007.1 |
| 20260506233047 | 51 | 188 | 11.3 | 17.4 | 0.00 | 0.00 | 0.00 | 63 | 1007.0 |
| 20260506232539 | 51 | 197 | 8.7 | 13.9 | 0.00 | 0.00 | 0.00 | 62 | 1007.1 |
| 20260506232038 | 52 | 167 | 7.0 | 16.5 | 0.00 | 0.00 | 0.00 | 62 | 1006.9 |
| 20260506231554 | 52 | 213 | 10.4 | 16.5 | 0.00 | 0.00 | 0.00 | 62 | 1006.9 |
| 20260506231037 | 52 | 207 | 11.3 | 16.5 | 0.00 | 0.00 | 0.00 | 61 | 1006.8 |
| 20260506230535 | 52 | 177 | 9.6 | 15.6 | 0.00 | 0.00 | 0.00 | 62 | 1006.7 |
| 20260506230055 | 52 | 191 | 7.8 | 15.6 | 0.00 | 0.00 | 0.00 | 62 | 1007.0 |
| 20260506225539 | 52 | 213 | 11.3 | 15.6 | 0.00 | 0.00 | 0.00 | 61 | 1007.1 |
| 20260506225039 | 52 | 190 | 9.6 | 15.6 | 0.00 | 0.00 | 0.00 | 61 | 1006.8 |
| 20260506224543 | 53 | 202 | 7.0 | 13.9 | 0.00 | 0.00 | 0.00 | 61 | 1006.9 |
| 20260506224035 | 53 | 218 | 9.6 | 13.9 | 0.00 | 0.00 | 0.00 | 60 | 1006.9 |
| 20260506223535 | 53 | 182 | 9.6 | 13.9 | 0.00 | 0.00 | 0.00 | 60 | 1006.9 |
| 20260506223040 | 53 | 207 | 7.8 | 13.0 | 0.00 | 0.00 | 0.00 | 60 | 1007.0 |
| 20260506222538 | 53 | 217 | 7.0 | 13.0 | 0.00 | 0.00 | 0.00 | 60 | 1007.0 |
| 20260506222038 | 53 | 224 | 8.7 | 12.2 | 0.00 | 0.00 | 0.00 | 59 | 1006.9 |
| 20260506221604 | 53 | 202 | 7.8 | 14.8 | 0.00 | 0.00 | 0.00 | 59 | 1006.9 |
| 20260506221035 | 53 | 236 | 8.7 | 14.8 | 0.00 | 0.00 | 0.00 | 59 | 1006.8 |
| 20260506220535 | 53 | 197 | 9.6 | 14.8 | 0.00 | 0.00 | 0.00 | 58 | 1006.7 |
| 20260506220049 | 53 | 192 | 8.7 | 14.8 | 0.00 | 0.00 | 0.00 | 58 | 1006.7 |
| 20260506215539 | 53 | 217 | 10.4 | 14.8 | 0.00 | 0.00 | 0.00 | 58 | 1006.6 |
| 20260506215035 | 53 | 185 | 8.7 | 13.9 | 0.00 | 0.00 | 0.00 | 58 | 1006.8 |
| 20260506214551 | 53 | 197 | 9.6 | 15.6 | 0.00 | 0.00 | 0.00 | 57 | 1006.7 |
| 20260506214034 | 53 | 202 | 10.4 | 15.6 | 0.00 | 0.00 | 0.00 | 56 | 1006.7 |
| 20260506213535 | 54 | 191 | 10.4 | 15.6 | 0.00 | 0.00 | 0.00 | 56 | 1006.6 |
| 20260506213043 | 54 | 197 | 7.8 | 13.9 | 0.00 | 0.00 | 0.00 | 56 | 1006.6 |
| 20260506212538 | 54 | 194 | 10.4 | 14.8 | 0.00 | 0.00 | 0.00 | 55 | 1006.8 |
| 20260506212036 | 54 | 202 | 9.6 | 14.8 | 0.00 | 0.00 | 0.00 | 54 | 1006.7 |
| 20260506211542 | 54 | 197 | 9.6 | 14.8 | 0.00 | 0.00 | 0.00 | 55 | 1006.9 |
| 20260506211036 | 54 | 181 | 7.8 | 14.8 | 0.00 | 0.00 | 0.00 | 54 | 1006.7 |
| 20260506210538 | 54 | 169 | 7.8 | 14.8 | 0.00 | 0.00 | 0.00 | 54 | 1006.8 |
| 20260506210051 | 54 | 190 | 8.7 | 12.2 | 0.00 | 0.00 | 0.00 | 53 | 1006.7 |
| 20260506205535 | 54 | 197 | 7.8 | 12.2 | 0.00 | 0.00 | 0.00 | 53 | 1006.6 |
| 20260506205036 | 54 | 202 | 7.8 | 13.9 | 0.00 | 0.00 | 0.00 | 55 | 1006.6 |
| 20260506204545 | 54 | 189 | 8.7 | 13.9 | 0.00 | 0.00 | 0.00 | 53 | 1006.6 |
| 20260506204035 | 54 | 183 | 7.8 | 13.9 | 0.00 | 0.00 | 0.00 | 53 | 1006.6 |
| 20260506203535 | 54 | 222 | 6.1 | 11.3 | 0.00 | 0.00 | 0.00 | 54 | 1006.6 |
| 20260506203045 | 54 | 166 | 7.0 | 13.0 | 0.00 | 0.00 | 0.00 | 53 | 1006.6 |
| 20260506202538 | 54 | 155 | 7.8 | 13.0 | 0.00 | 0.00 | 0.00 | 53 | 1006.4 |
| 20260506202034 | 54 | 169 | 6.1 | 13.0 | 0.00 | 0.00 | 0.00 | 52 | 1006.5 |
| 20260506201544 | 54 | 172 | 7.8 | 12.2 | 0.00 | 0.00 | 0.00 | 54 | 1006.7 |
| 20260506201035 | 53 | 223 | 7.8 | 13.9 | 0.00 | 0.00 | 0.00 | 54 | 1006.6 |
| 20260506200537 | 53 | 165 | 8.7 | 19.1 | 0.00 | 0.00 | 0.00 | 55 | 1006.6 |
| 20260506200042 | 53 | 194 | 11.3 | 19.1 | 0.00 | 0.00 | 0.00 | 55 | 1006.8 |
| 20260506195535 | 53 | 167 | 7.0 | 11.3 | 0.00 | 0.00 | 0.00 | 55 | 1006.8 |
| 20260506195038 | 53 | 159 | 6.1 | 13.9 | 0.00 | 0.00 | 0.00 | 56 | 1007.0 |
| 20260506194550 | 53 | 179 | 9.6 | 13.9 | 0.00 | 0.00 | 0.00 | 54 | 1006.9 |
| 20260506194035 | 53 | 163 | 7.0 | 13.0 | 0.00 | 0.00 | 0.00 | 54 | 1007.0 |
| 20260506193536 | 53 | 222 | 6.1 | 13.0 | 0.00 | 0.00 | 0.00 | 56 | 1007.2 |
| 20260506193049 | 53 | 197 | 6.1 | 13.0 | 0.00 | 0.00 | 0.00 | 57 | 1007.2 |
| 20260506192534 | 52 | 161 | 7.0 | 12.2 | 0.00 | 0.00 | 0.00 | 56 | 1007.2 |
| 20260506192036 | 52 | 207 | 6.1 | 12.2 | 0.00 | 0.00 | 0.00 | 57 | 1007.2 |
| 20260506191549 | 52 | 197 | 4.3 | 13.0 | 0.00 | 0.00 | 0.00 | 57 | 1007.2 |
| 20260506191038 | 52 | 207 | 8.7 | 18.2 | 0.00 | 0.00 | 0.00 | 57 | 1007.1 |
| 20260506190536 | 51 | 172 | 8.7 | 18.2 | 0.00 | 0.00 | 0.00 | 61 | 1007.2 |
| 20260506190049 | 51 | 161 | 10.4 | 14.8 | 0.00 | 0.00 | 0.00 | 60 | 1007.1 |
| 20260506185542 | 51 | 172 | 9.6 | 13.9 | 0.00 | 0.00 | 0.00 | 61 | 1007.2 |
| 20260506185038 | 51 | 165 | 5.2 | 11.3 | 0.00 | 0.00 | 0.00 | 58 | 1007.2 |
| 20260506184548 | 51 | 187 | 7.0 | 13.0 | 0.00 | 0.00 | 0.00 | 61 | 1007.2 |
| 20260506184038 | 51 | 215 | 7.0 | 13.0 | 0.00 | 0.00 | 0.00 | 62 | 1007.2 |
| 20260506183540 | 51 | 167 | 9.6 | 13.0 | 0.00 | 0.00 | 0.00 | 62 | 1007.3 |
| 20260506183053 | 51 | 180 | 7.8 | 12.2 | 0.00 | 0.00 | 0.00 | 61 | 1007.3 |
| 20260506182537 | 51 | 214 | 7.0 | 12.2 | 0.00 | 0.00 | 0.00 | 62 | 1007.4 |
| 20260506182038 | 50 | 202 | 7.0 | 12.2 | 0.00 | 0.00 | 0.00 | 62 | 1007.5 |
| 20260506181549 | 50 | 166 | 5.2 | 12.2 | 0.00 | 0.00 | 0.00 | 63 | 1007.6 |
| 20260506181037 | 50 | 184 | 7.8 | 12.2 | 0.00 | 0.00 | 0.00 | 64 | 1007.6 |
| 20260506180538 | 50 | 153 | 5.2 | 12.2 | 0.00 | 0.00 | 0.00 | 65 | 1007.6 |
| 20260506180040 | 49 | 231 | 4.3 | 12.2 | 0.00 | 0.00 | 0.00 | 65 | 1007.6 |
| 20260506175538 | 49 | 184 | 7.0 | 12.2 | 0.00 | 0.00 | 0.00 | 64 | 1007.7 |
| 20260506175039 | 49 | 188 | 7.0 | 10.4 | 0.00 | 0.00 | 0.00 | 64 | 1007.9 |
| 20260506174548 | 49 | 191 | 5.2 | 9.6 | 0.00 | 0.00 | 0.00 | 64 | 1007.9 |
| 20260506174036 | 49 | 197 | 2.6 | 11.3 | 0.00 | 0.00 | 0.00 | 65 | 1007.9 |
| 20260506173538 | 49 | 227 | 7.8 | 11.3 | 0.00 | 0.00 | 0.00 | 66 | 1008.2 |
| 20260506173057 | 49 | 214 | 4.3 | 11.3 | 0.00 | 0.00 | 0.00 | 67 | 1008.2 |
| 20260506172538 | 49 | 221 | 7.8 | 11.3 | 0.00 | 0.00 | 0.00 | 68 | 1008.2 |
| 20260506172038 | 49 | 187 | 6.1 | 10.4 | 0.00 | 0.00 | 0.00 | 67 | 1008.2 |
| 20260506171544 | 49 | 219 | 6.1 | 9.6 | 0.00 | 0.00 | 0.00 | 66 | 1008.2 |
| 20260506171038 | 48 | 224 | 6.1 | 9.6 | 0.00 | 0.00 | 0.00 | 66 | 1008.2 |
| 20260506170538 | 48 | 211 | 3.5 | 9.6 | 0.00 | 0.00 | 0.00 | 66 | 1008.1 |
| 20260506170047 | 48 | 221 | 6.1 | 9.6 | 0.00 | 0.00 | 0.00 | 66 | 1008.2 |
| 20260506165534 | 48 | 172 | 4.3 | 7.8 | 0.00 | 0.00 | 0.00 | 66 | 1008.1 |
| 20260506165037 | 48 | 190 | 3.5 | 8.7 | 0.00 | 0.00 | 0.00 | 67 | 1008.3 |
| 20260506164601 | 48 | 207 | 4.3 | 8.7 | 0.00 | 0.00 | 0.00 | 67 | 1008.4 |
| 20260506164035 | 48 | 188 | 5.2 | 8.7 | 0.00 | 0.00 | 0.00 | 67 | 1008.3 |
| 20260506163537 | 48 | 169 | 2.6 | 10.4 | 0.00 | 0.00 | 0.00 | 67 | 1008.4 |
| 20260506163056 | 48 | 197 | 6.1 | 11.3 | 0.00 | 0.00 | 0.00 | 66 | 1008.5 |
| 20260506162537 | 48 | 189 | 7.0 | 11.3 | 0.00 | 0.00 | 0.00 | 67 | 1008.5 |
| 20260506162041 | 48 | 173 | 6.1 | 10.4 | 0.00 | 0.00 | 0.00 | 67 | 1008.3 |
| 20260506161546 | 48 | 159 | 7.0 | 10.4 | 0.00 | 0.00 | 0.00 | 67 | 1008.3 |
| 20260506161038 | 48 | 184 | 5.2 | 8.7 | 0.00 | 0.00 | 0.00 | 65 | 1008.3 |
| 20260506160540 | 48 | 179 | 6.1 | 8.7 | 0.00 | 0.00 | 0.00 | 65 | 1008.5 |
| 20260506160056 | 48 | 225 | 4.3 | 9.6 | 0.00 | 0.00 | 0.00 | 65 | 1008.5 |
| 20260506155538 | 48 | 182 | 4.3 | 9.6 | 0.00 | 0.00 | 0.00 | 65 | 1008.4 |
| 20260506155038 | 48 | 217 | 6.1 | 9.6 | 0.00 | 0.00 | 0.00 | 65 | 1008.5 |
| 20260506154547 | 48 | 219 | 5.2 | 8.7 | 0.00 | 0.00 | 0.00 | 66 | 1008.4 |
| 20260506154037 | 48 | 173 | 5.2 | 9.6 | 0.00 | 0.00 | 0.00 | 65 | 1008.5 |
| 20260506153541 | 48 | 172 | 5.2 | 9.6 | 0.00 | 0.00 | 0.00 | 65 | 1008.6 |
| 20260506153048 | 48 | 188 | 5.2 | 8.7 | 0.00 | 0.00 | 0.00 | 66 | 1008.5 |
| 20260506152538 | 48 | 169 | 0.9 | 7.8 | 0.00 | 0.00 | 0.00 | 65 | 1008.5 |
| 20260506152037 | 47 | 0 | 2.6 | 7.8 | 0.00 | 0.00 | 0.00 | 65 | 1008.6 |
| 20260506151553 | 47 | 225 | 5.2 | 7.8 | 0.00 | 0.00 | 0.00 | 67 | 1008.7 |
| 20260506151038 | 47 | 151 | 4.3 | 8.7 | 0.00 | 0.00 | 0.00 | 68 | 1008.6 |
| 20260506150539 | 47 | 197 | 2.6 | 10.4 | 0.00 | 0.00 | 0.00 | 68 | 1008.6 |
| 20260506150100 | 47 | 188 | 5.2 | 10.4 | 0.00 | 0.00 | 0.00 | 67 | 1008.7 |
| 20260506145538 | 47 | 194 | 6.1 | 10.4 | 0.00 | 0.00 | 0.00 | 69 | 1008.8 |
| 20260506145038 | 47 | 211 | 7.0 | 10.4 | 0.00 | 0.00 | 0.00 | 70 | 1008.7 |
| 20260506144547 | 47 | 217 | 6.1 | 11.3 | 0.00 | 0.00 | 0.00 | 70 | 1008.7 |
| 20260506144038 | 47 | 202 | 6.1 | 11.3 | 0.00 | 0.00 | 0.00 | 70 | 1008.7 |
| 20260506143538 | 47 | 173 | 7.0 | 10.4 | 0.00 | 0.00 | 0.00 | 69 | 1008.7 |
| 20260506143046 | 47 | 186 | 7.0 | 10.4 | 0.00 | 0.00 | 0.00 | 68 | 1008.7 |
| 20260506142538 | 47 | 220 | 6.1 | 11.3 | 0.00 | 0.00 | 0.00 | 69 | 1008.8 |
| 20260506142035 | 47 | 219 | 6.1 | 11.3 | 0.00 | 0.00 | 0.00 | 68 | 1008.7 |
| 20260506141549 | 47 | 189 | 7.8 | 11.3 | 0.00 | 0.00 | 0.00 | 68 | 1008.6 |
| 20260506141037 | 47 | 163 | 6.1 | 9.6 | 0.00 | 0.00 | 0.00 | 66 | 1008.5 |
| 20260506140539 | 47 | 207 | 5.2 | 8.7 | 0.00 | 0.00 | 0.00 | 65 | 1008.5 |
| 20260506140048 | 47 | 170 | 5.2 | 9.6 | 0.00 | 0.00 | 0.00 | 64 | 1008.5 |
| 20260506135539 | 47 | 164 | 5.2 | 10.4 | 0.00 | 0.00 | 0.00 | 65 | 1008.5 |
| 20260506135038 | 47 | 184 | 7.0 | 10.4 | 0.00 | 0.00 | 0.00 | 64 | 1008.4 |
| 20260506134544 | 47 | 182 | 7.0 | 10.4 | 0.00 | 0.00 | 0.00 | 64 | 1008.6 |
| 20260506134040 | 47 | 214 | 6.1 | 8.7 | 0.00 | 0.00 | 0.00 | 66 | 1008.5 |
| 20260506133537 | 47 | 190 | 4.3 | 8.7 | 0.00 | 0.00 | 0.00 | 67 | 1008.5 |
| 20260506133101 | 47 | 163 | 3.5 | 8.7 | 0.00 | 0.00 | 0.00 | 67 | 1008.4 |
| 20260506132538 | 47 | 197 | 4.3 | 8.7 | 0.00 | 0.00 | 0.00 | 66 | 1008.5 |
| 20260506132041 | 47 | 175 | 6.1 | 8.7 | 0.00 | 0.00 | 0.00 | 65 | 1008.5 |
| 20260506131547 | 47 | 194 | 3.5 | 7.8 | 0.00 | 0.00 | 0.00 | 63 | 1008.6 |
| 20260506131038 | 47 | 161 | 2.6 | 7.8 | 0.00 | 0.00 | 0.00 | 62 | 1008.6 |
| 20260506130536 | 47 | 151 | 5.2 | 7.8 | 0.00 | 0.00 | 0.00 | 61 | 1008.5 |
| 20260506130049 | 47 | 162 | 4.3 | 7.0 | 0.00 | 0.00 | 0.00 | 60 | 1008.4 |
| 20260506125537 | 47 | 154 | 3.5 | 7.0 | 0.00 | 0.00 | 0.00 | 59 | 1008.5 |
| 20260506125037 | 47 | 164 | 2.6 | 6.1 | 0.00 | 0.00 | 0.00 | 59 | 1008.5 |
| 20260506124548 | 47 | 169 | 3.5 | 11.3 | 0.00 | 0.00 | 0.00 | 58 | 1008.7 |
| 20260506124037 | 47 | 142 | 6.1 | 11.3 | 0.00 | 0.00 | 0.00 | 57 | 1008.5 |
| 20260506123542 | 47 | 135 | 7.0 | 10.4 | 0.00 | 0.00 | 0.00 | 56 | 1008.4 |
| 20260506123049 | 47 | 157 | 7.0 | 10.4 | 0.00 | 0.00 | 0.00 | 58 | 1008.4 |
| 20260506122540 | 47 | 173 | 6.1 | 9.6 | 0.00 | 0.00 | 0.00 | 63 | 1008.3 |
| 20260506122038 | 48 | 145 | 7.0 | 9.6 | 0.00 | 0.00 | 0.00 | 62 | 1008.5 |
| 20260506121554 | 47 | 163 | 2.6 | 4.3 | 0.00 | 0.00 | 0.00 | 57 | 1008.6 |
| 20260506121038 | 47 | 184 | 0.9 | 2.6 | 0.00 | 0.00 | 0.00 | 57 | 1008.5 |
| 20260506120538 | 47 | 184 | 0.0 | 2.6 | 0.00 | 0.00 | 0.00 | 58 | 1008.5 |
| 20260506120101 | 47 | 184 | 0.9 | 2.6 | 0.00 | 0.00 | 0.00 | 58 | 1008.5 |
| 20260506115538 | 47 | 0 | 0.0 | 0.0 | 0.00 | 0.00 | 0.00 | 61 | 1008.5 |
| 20260506115037 | 47 | 0 | 0.0 | 0.9 | 0.00 | 0.00 | 0.00 | 63 | 1008.5 |
| 20260506114550 | 47 | 0 | 0.0 | 0.9 | 0.00 | 0.00 | 0.00 | 62 | 1008.6 |
| 20260506114035 | 47 | 0 | 0.0 | 0.0 | 0.00 | 0.00 | 0.00 | 63 | 1008.6 |
| 20260506113535 | 47 | 0 | 0.0 | 0.0 | 0.00 | 0.00 | 0.00 | 64 | 1008.6 |
| 20260506113048 | 47 | 0 | 0.0 | 1.7 | 0.00 | 0.00 | 0.00 | 64 | 1008.4 |
| 20260506112540 | 47 | 0 | 0.0 | 1.7 | 0.00 | 0.00 | 0.00 | 64 | 1008.4 |
| 20260506112038 | 47 | 0 | 0.0 | 0.0 | 0.00 | 0.00 | 0.00 | 64 | 1008.4 |
| 20260506111550 | 47 | 0 | 0.0 | 0.0 | 0.00 | 0.00 | 0.00 | 65 | 1008.3 |
| 20260506111038 | 47 | 0 | 0.0 | 0.0 | 0.00 | 0.00 | 0.00 | 64 | 1008.3 |
| 20260506110538 | 47 | 0 | 0.0 | 0.0 | 0.00 | 0.00 | 0.00 | 64 | 1008.3 |
| 20260506110058 | 47 | 0 | 0.0 | 0.0 | 0.00 | 0.00 | 0.00 | 64 | 1008.3 |
| 20260506105538 | 47 | 0 | 0.0 | 0.0 | 0.00 | 0.00 | 0.00 | 64 | 1008.3 |
| 20260506105039 | 47 | 0 | 0.0 | 1.7 | 0.00 | 0.00 | 0.00 | 62 | 1008.3 |
| 20260506104603 | 47 | 0 | 0.0 | 1.7 | 0.00 | 0.00 | 0.00 | 62 | 1008.2 |
| 20260506104038 | 47 | 184 | 0.9 | 3.5 | 0.00 | 0.00 | 0.00 | 61 | 1008.2 |
| 20260506103538 | 47 | 0 | 0.9 | 3.5 | 0.00 | 0.00 | 0.00 | 61 | 1008.3 |
| 20260506103049 | 47 | 182 | 1.7 | 3.5 | 0.00 | 0.00 | 0.00 | 61 | 1008.2 |
| 20260506102538 | 47 | 182 | 1.7 | 3.5 | 0.00 | 0.00 | 0.00 | 61 | 1008.3 |
| 20260506102040 | 47 | 185 | 1.7 | 2.6 | 0.00 | 0.00 | 0.00 | 61 | 1008.3 |
| 20260506101554 | 47 | 243 | 0.9 | 1.7 | 0.00 | 0.00 | 0.00 | 61 | 1008.3 |
| 20260506101037 | 47 | 0 | 0.0 | 1.7 | 0.00 | 0.00 | 0.00 | 61 | 1008.5 |
| 20260506100538 | 47 | 243 | 0.9 | 2.6 | 0.00 | 0.00 | 0.00 | 61 | 1008.5 |
| 20260506100053 | 47 | 243 | 0.9 | 2.6 | 0.00 | 0.00 | 0.00 | 62 | 1008.5 |
| 20260506095538 | 47 | 0 | 0.0 | 3.5 | 0.00 | 0.00 | 0.00 | 61 | 1008.6 |
| 20260506095039 | 47 | 255 | 0.9 | 4.3 | 0.00 | 0.00 | 0.00 | 60 | 1008.8 |
| 20260506094600 | 47 | 219 | 0.9 | 4.3 | 0.00 | 0.00 | 0.00 | 60 | 1008.6 |
| 20260506094040 | 47 | 218 | 1.7 | 5.2 | 0.00 | 0.00 | 0.00 | 60 | 1008.4 |
| 20260506093538 | 47 | 202 | 2.6 | 5.2 | 0.00 | 0.00 | 0.00 | 59 | 1008.2 |
| 20260506093050 | 47 | 207 | 1.7 | 3.5 | 0.00 | 0.00 | 0.00 | 59 | 1008.2 |
| 20260506092538 | 47 | 221 | 1.7 | 3.5 | 0.00 | 0.00 | 0.00 | 59 | 1008.2 |
| 20260506092038 | 47 | 221 | 1.7 | 3.5 | 0.00 | 0.00 | 0.00 | 59 | 1008.2 |
| 20260506091549 | 47 | 232 | 0.9 | 3.5 | 0.00 | 0.00 | 0.00 | 59 | 1008.2 |
| 20260506091038 | 47 | 219 | 0.9 | 3.5 | 0.00 | 0.00 | 0.00 | 58 | 1008.0 |
| 20260506090537 | 47 | 219 | 1.7 | 4.3 | 0.00 | 0.00 | 0.00 | 57 | 1008.1 |
| 20260506090053 | 47 | 213 | 2.6 | 4.3 | 0.00 | 0.00 | 0.00 | 57 | 1008.1 |
| 20260506085538 | 47 | 211 | 1.7 | 3.5 | 0.00 | 0.00 | 0.00 | 57 | 1008.2 |
| 20260506085038 | 47 | 222 | 1.7 | 3.5 | 0.00 | 0.00 | 0.00 | 58 | 1008.1 |
| 20260506084618 | 47 | 228 | 0.9 | 3.5 | 0.00 | 0.00 | 0.00 | 57 | 1008.1 |
| 20260506084038 | 47 | 233 | 0.9 | 3.5 | 0.00 | 0.00 | 0.00 | 57 | 1008.1 |
| 20260506083538 | 47 | 0 | 0.0 | 3.5 | 0.00 | 0.00 | 0.00 | 57 | 1008.3 |
| 20260506083053 | 47 | 261 | 0.0 | 3.5 | 0.00 | 0.00 | 0.00 | 57 | 1008.4 |
| 20260506082535 | 47 | 255 | 0.9 | 2.6 | 0.00 | 0.00 | 0.00 | 58 | 1008.4 |
| 20260506082039 | 47 | 259 | 0.0 | 2.6 | 0.00 | 0.00 | 0.00 | 58 | 1008.4 |
| 20260506081555 | 48 | 0 | 0.0 | 1.7 | 0.00 | 0.00 | 0.00 | 58 | 1008.3 |
| 20260506081038 | 48 | 0 | 0.0 | 1.7 | 0.00 | 0.00 | 0.00 | 59 | 1008.2 |
| 20260506080538 | 48 | 226 | 0.0 | 2.6 | 0.00 | 0.00 | 0.00 | 58 | 1008.1 |
| 20260506073101 | 48 | 226 | 1.7 | 3.5 | 0.00 | 0.00 | 0.00 | 55 | 1008.3 |
| 20260506072539 | 48 | 226 | 0.9 | 3.5 | 0.00 | 0.00 | 0.00 | 56 | 1008.3 |
| 20260506072039 | 48 | 228 | 1.7 | 4.3 | 0.00 | 0.00 | 0.00 | 54 | 1008.3 |
| 20260506071549 | 48 | 0 | 1.7 | 4.3 | 0.00 | 0.00 | 0.00 | 54 | 1008.4 |
| 20260506071038 | 48 | 228 | 0.9 | 4.3 | 0.00 | 0.00 | 0.00 | 54 | 1008.4 |
| 20260506070538 | 48 | 226 | 1.7 | 4.3 | 0.00 | 0.00 | 0.00 | 54 | 1008.4 |
| 20260506062039 | 49 | 227 | 1.7 | 7.0 | 0.00 | 0.00 | 0.00 | 53 | 1008.2 |
| 20260506061546 | 49 | 227 | 1.7 | 4.3 | 0.00 | 0.00 | 0.00 | 53 | 1008.2 |
| 20260506061039 | 49 | 230 | 0.9 | 4.3 | 0.00 | 0.00 | 0.00 | 53 | 1008.2 |
| 20260506060537 | 49 | 0 | 0.9 | 4.3 | 0.00 | 0.00 | 0.00 | 53 | 1008.2 |
| 20260506051038 | 50 | 224 | 1.7 | 7.0 | 0.00 | 0.00 | 0.00 | 50 | 1008.2 |
| 20260506050538 | 50 | 258 | 2.6 | 7.0 | 0.00 | 0.00 | 0.00 | 50 | 1008.2 |
| 20260506045039 | 50 | 247 | 2.6 | 7.8 | 0.00 | 0.00 | 0.00 | 50 | 1008.1 |
| 20260506044543 | 50 | 259 | 2.6 | 7.8 | 0.00 | 0.00 | 0.00 | 51 | 1008.0 |
| 20260506044041 | 50 | 222 | 2.6 | 7.8 | 0.00 | 0.00 | 0.00 | 51 | 1007.9 |
| 20260506043537 | 50 | 253 | 1.7 | 7.8 | 0.00 | 0.00 | 0.00 | 52 | 1007.9 |
| 20260506043049 | 50 | 230 | 2.6 | 7.8 | 0.00 | 0.00 | 0.00 | 51 | 1008.1 |
| 20260506042539 | 50 | 261 | 1.7 | 6.1 | 0.00 | 0.00 | 0.00 | 51 | 1008.0 |
| 20260506042039 | 50 | 251 | 1.7 | 7.0 | 0.00 | 0.00 | 0.00 | 51 | 1008.0 |
| 20260506041556 | 51 | 242 | 0.9 | 7.0 | 0.00 | 0.00 | 0.00 | 51 | 1008.0 |
| 20260506041038 | 51 | 228 | 1.7 | 6.1 | 0.00 | 0.00 | 0.00 | 52 | 1007.9 |
| 20260506040538 | 51 | 0 | 1.7 | 7.0 | 0.00 | 0.00 | 0.00 | 50 | 1007.8 |
| 20260506040050 | 51 | 220 | 1.7 | 7.0 | 0.00 | 0.00 | 0.00 | 50 | 1007.8 |
| 20260506035538 | 51 | 251 | 1.7 | 6.1 | 0.00 | 0.00 | 0.00 | 50 | 1007.8 |
| 20260506035038 | 51 | 228 | 2.6 | 7.8 | 0.00 | 0.00 | 0.00 | 49 | 1007.9 |
| 20260506034550 | 51 | 225 | 1.7 | 7.8 | 0.00 | 0.00 | 0.00 | 47 | 1007.7 |
| 20260506034041 | 51 | 261 | 1.7 | 6.1 | 0.00 | 0.00 | 0.00 | 47 | 1007.7 |
| 20260506033538 | 51 | 255 | 1.7 | 6.1 | 0.00 | 0.00 | 0.00 | 47 | 1007.8 |
| 20260506033044 | 51 | 240 | 0.9 | 7.0 | 0.00 | 0.00 | 0.00 | 47 | 1007.7 |
| 20260506032538 | 51 | 229 | 1.7 | 7.0 | 0.00 | 0.00 | 0.00 | 47 | 1007.8 |
| 20260506032101 | 51 | 233 | 1.7 | 7.0 | 0.00 | 0.00 | 0.00 | 45 | 1007.7 |
| 20260506031545 | 51 | 255 | 2.6 | 10.4 | 0.00 | 0.00 | 0.00 | 46 | 1007.6 |